Regional Weather Roundup
Issued by NWS

Home | Current Version | Previous Version | Graphics & Text | Print | Product List | Glossary On
Versions: 1 2 3 4 5 6 7 8 9 10 11 12 13 14 15 16 17 18 19 20 21 22 23 24 25 26 27 28 29 30 31 32 33 34 35 36 37 38 39 40 41 42 43 44 45 46 47 48 49 50
000
ASUS43 KFSD 301702
RWRSD

WEATHER ROUNDUP FOR SOUTH DAKOTA
NATIONAL WEATHER SERVICE SIOUX FALLS SD
1200 PM CDT THU JUL 30 2015

NOTE: "FAIR" INDICATES FEW OR NO CLOUDS BELOW 12,000 FEET WITH NO
SIGNIFICANT WEATHER AND/OR OBSTRUCTIONS TO VISIBILITY.


SDZ001>005-009-010-012>017-301800-
NORTHWEST AND NORTH CENTRAL SOUTH DAKOTA

CITY           SKY/WX    TMP DP  RH WIND       PRES   REMARKS
BUFFALO          N/A     83  38  20 W10       30.17R
FAITH            N/A     85  38  18 W13       30.21R
MOBRIDGE       SUNNY     83  57  41 W5        30.13S
$$

SDZ012>016-024>037-041>051-057-063-072>074-301800-
SOUTHWEST AND SOUTH CENTRAL SOUTH DAKOTA

CITY           SKY/WX    TMP DP  RH WIND       PRES   REMARKS
RAPID CTY ARPT SUNNY     82  45  27 NW7       30.27R
PIERRE         SUNNY     83  50  31 SW5       30.16S
CUSTER         SUNNY     77  38  24 VRB5      30.40R
ELLSWORTH AFB  SUNNY     82  44  25 VRB7      30.26S
PHILIP         SUNNY     85  54  34 NW7       30.20R
PINE RIDGE     SUNNY     81  56  42 CALM      30.27S
WINNER         FAIR      86  53  32 VRB6      30.18S
$$

SDZ004>011-016>023-039-040-301800-
NORTHEAST SOUTH DAKOTA

CITY           SKY/WX    TMP DP  RH WIND       PRES   REMARKS
ABERDEEN       SUNNY     80  61  52 SE7       30.12S
WATERTOWN      SUNNY     80  52  37 W7        30.15S
BROOKINGS      SUNNY     81  55  41 NW9       30.17R
SISSETON         N/A     79  57  46 NW12      30.10R
$$

SDZ017-020-022-023-036>040-048>070-301800-
SOUTHEAST SOUTH DAKOTA

CITY           SKY/WX    TMP DP  RH WIND       PRES   REMARKS
SIOUX FALLS    SUNNY     81  63  54 VRB5      30.15S
HURON          SUNNY     81  58  45 CALM      30.14S
MITCHELL       SUNNY     83  54  36 CALM      30.16R
YANKTON        SUNNY     82  61  47 W13       30.16S
$$

ABBREVIATIONS USED IN REMARKS
   TC - TEMPERATURE IN CELSIUS
  WCI - WIND CHILL INDEX
   HX - HEAT INDEX
  VSB - VISIBILITY




USA.gov is the U.S. government's official web portal to all federal, state and local government web resources and services.